JQ1YUX-13 Tokyo Ota-ku JP current weather conditions

sailwx.info

Wind from 170

Air temperature 17.2° C
Dewpoint 15.2° C

Last reported at 2014-Oct-30 11:44 UTC.
Time now 2014-Oct-30 12:18 UTC

Location: N 35°35' E 139°40'.
View on Google Maps.

See reports from other nearby stations

  
Tides and Currents Weather Stations Pressure Air Temp Water Temp Dewpoint Dewpoint Depression Visibility Wind Speed Wind Dir Waves Ship Positions
date/time (UTC)wind fromknots sea level pressurealtimeterstation pressurevisibilityair tempwater tempwave heightnotes
2014-Oct-30 11:44 170 17.2
2014-Oct-30 11:21 170 17.2
2014-Oct-30 11:14 169 17.2
2014-Oct-30 10:51 169 17.8
2014-Oct-30 10:44 170 17.8
2014-Oct-30 10:21 170 17.8
2014-Oct-30 10:14 171 17.8
2014-Oct-30 09:51 169 18.3
2014-Oct-30 09:44 170 18.3
2014-Oct-30 09:21 169 18.3
2014-Oct-30 09:14 170 18.9
2014-Oct-30 08:51 170 18.9
2014-Oct-30 08:44 169 18.9
2014-Oct-30 08:21 169 19.4
2014-Oct-30 08:14 171 19.4
2014-Oct-30 07:51 198 20.0
2014-Oct-30 07:44 198 20.0
2014-Oct-30 07:21 186 20.6
2014-Oct-30 07:14 157 20.6
2014-Oct-30 06:51 187 2 gusting 5 21.1
2014-Oct-30 06:44 178 21.1
2014-Oct-30 06:21 186 0 gusting 6 21.1
2014-Oct-30 06:14 175 2 gusting 6 21.1
2014-Oct-30 05:51 204 0 gusting 5 21.1
2014-Oct-30 05:44 178 3 gusting 5 21.1
2014-Oct-30 05:21 219 21.7
2014-Oct-30 05:14 202 0 gusting 2 21.7
2014-Oct-30 04:51 202 22.2
2014-Oct-30 04:44 184 22.2
2014-Oct-30 04:21 187 21.1
2014-Oct-30 04:14 187 0 gusting 8 21.7
2014-Oct-30 03:51 164 21.7
2014-Oct-30 03:44 211 21.7
2014-Oct-30 03:21 194 20.6
2014-Oct-30 03:14 223 21.1
2014-Oct-30 02:51 265 21.1
2014-Oct-30 02:44 265 20.6
2014-Oct-30 02:21 038 19.4
2014-Oct-30 02:14 316 18.9
2014-Oct-30 01:52 044 18.3
2014-Oct-30 01:44 010 18.3
2014-Oct-30 01:21 035 1 gusting 4 17.2
2014-Oct-30 01:14 301 16.7
2014-Oct-30 00:51 317 15.6
2014-Oct-30 00:44 344 1 gusting 6 15.0
2014-Oct-30 00:22 304 14.4
2014-Oct-29 23:52 333 0 13.3
2014-Oct-29 23:22 271 11.7
2014-Oct-29 22:52 331 11.1
2014-Oct-29 22:22 332 10.6
2014-Oct-29 21:52 331 10.6
2014-Oct-29 21:22 332 10.6
2014-Oct-29 20:52 331 10.6
2014-Oct-29 20:22 331 10.6
2014-Oct-29 19:52 332 10.6
2014-Oct-29 19:22 331 10.6
2014-Oct-29 18:52 331 11.1
2014-Oct-29 18:22 332 11.7
2014-Oct-29 17:52 331 12.2
2014-Oct-29 17:22 329 12.2
2014-Oct-29 16:52 329 12.2
2014-Oct-29 16:22 329 12.8
2014-Oct-29 15:52 329 12.8
2014-Oct-29 15:22 329 13.3
2014-Oct-29 14:52 322 13.9
2014-Oct-29 14:22 327 13.9
2014-Oct-29 13:52 327 14.4
2014-Oct-29 13:22 265 14.4
2014-Oct-29 12:52 236 14.4
2014-Oct-29 12:22 236 15.0
2014-Oct-29 11:52 236 15.6
2014-Oct-29 11:22 235 15.6
2014-Oct-29 10:52 236 16.1
2014-Oct-29 10:22 236 16.7
2014-Oct-29 09:52 235 17.2
2014-Oct-29 09:22 236 17.8
2014-Oct-29 08:52 236 18.3
2014-Oct-29 08:22 236 18.9
2014-Oct-29 07:52 226 19.4
2014-Oct-29 07:22 194 20.6
2014-Oct-29 06:52 200 21.7
2014-Oct-29 06:22 180 21.7
2014-Oct-29 05:52 169 0 gusting 3 21.7
2014-Oct-29 05:22 223 22.2
2014-Oct-29 04:52 210 0 21.7
2014-Oct-29 04:22 294 21.7
2014-Oct-29 03:52 024 21.7
2014-Oct-29 03:22 284 21.7
2014-Oct-29 02:52 245 20.0
2014-Oct-29 02:22 346 19.4
2014-Oct-29 01:52 036 0 19.4
2014-Oct-29 01:22 010 0 gusting 5 18.3
2014-Oct-29 00:52 015 3 gusting 8 17.8
2014-Oct-29 00:22 294 16.7
2014-Oct-28 23:52 355 1 gusting 6 16.1
2014-Oct-28 23:22 296 1 gusting 4 14.4
2014-Oct-28 22:52 288 13.9
2014-Oct-28 22:22 326 12.8
2014-Oct-28 21:52 340 11.1
2014-Oct-28 21:22 319 11.1
2014-Oct-28 20:52 309 11.1
2014-Oct-28 20:22 296 11.1
2014-Oct-28 19:52 332 11.1
2014-Oct-28 19:22 343 10.0
2014-Oct-28 18:52 344 10.6
2014-Oct-28 18:22 343 11.1
2014-Oct-28 17:52 325 11.7
2014-Oct-28 17:22 325 12.2
2014-Oct-28 16:52 320 12.2
2014-Oct-28 16:22 317 1 gusting 6 12.8
2014-Oct-28 15:52 355 12.8
2014-Oct-28 15:22 337 12.8
2014-Oct-28 14:52 329 2 gusting 4 12.8
2014-Oct-28 14:22 333 13.3
2014-Oct-28 13:52 336 0 gusting 4 13.3
2014-Oct-28 13:22 337 13.3
2014-Oct-28 12:52 332 13.9
2014-Oct-28 12:22 321 13.9